User: anonymous   Login
Location: Unspecified
(0.0000°N, 0.0000°E)
Time: 20:08:34
(UTC+00:00)
Language:

HISPASAT 30W-6 - Orbit

View from above orbital plane
View from above orbital plane
View from above satellite
View from above satellite

Ground track
Ground track

The orbit is defined by the following mean orbital elements,

1 43228U          26145.40113373 +.00000000 +00000-0 +00000-0 0 00002
2 43228   0.0487  44.8453 0006389  12.9598 299.5857  1.00270691    09
Epoch (UTC): 25 May 2026 09:37:37
Eccentricity: 0.0006389
inclination: 0.0487°
perigee height: 35760 km
apogee height: 35814 km
right ascension of ascending node: 44.8453°
argument of perigee: 12.9598°
revolutions per day: 1.00270691
mean anomaly at epoch: 299.5857°

The dashed part of the orbit path shows where the satellite is in the earth's shadow,  

DLR